Total_Precipitation_Accumulation
0.52 0.40 0.45 0.45 0.35 0.43 0.71 0.71 0.72 0.45 0.33 0.33 0.30 0.28 0.24 0.26 0.27 0.27 0.28 0.30 0.34 0.36 0.39 0.42 0.40 0.40 0.43 0.48 0.54 0.55 0.55 0.62 0.64 0.64 0.69 0.76 0.79 0.78 0.78 0.78 0.84 0.87 0.88 0.91
0.52 0.33 0.33 0.35 0.29 0.33 0.42 0.45 0.49 0.40 0.36 0.26 0.25 0.23 0.22 0.23 0.22 0.21 0.22 0.24 0.25 0.29 0.36 0.38 0.37 0.36 0.36 0.39 0.43 0.44 0.44 0.48 0.53 0.59 0.67 0.74 0.80 0.79 0.76 0.75 0.80 0.86 0.86 0.90
0.46 0.25 0.33 0.38 0.30 0.35 0.38 0.36 0.42 0.45 0.37 0.23 0.23 0.21 0.22 0.22 0.19 0.17 0.18 0.18 0.19 0.22 0.27 0.29 0.28 0.31 0.33 0.34 0.37 0.39 0.38 0.39 0.44 0.54 0.62 0.66 0.73 0.78 0.79 0.79 0.87 0.96 0.98 0.98
0.47 0.33 0.38 0.25 0.19 0.24 0.29 0.32 0.33 0.32 0.24 0.18 0.19 0.21 0.20 0.20 0.18 0.16 0.15 0.14 0.15 0.18 0.21 0.21 0.22 0.24 0.25 0.25 0.31 0.39 0.42 0.45 0.47 0.51 0.57 0.65 0.69 0.76 0.82 0.84 0.92 1.03 1.08 1.05
0.49 0.38 0.23 0.13 0.10 0.16 0.26 0.29 0.20 0.18 0.15 0.12 0.13 0.14 0.14 0.16 0.15 0.15 0.15 0.14 0.14 0.15 0.17 0.15 0.17 0.21 0.21 0.21 0.26 0.34 0.39 0.44 0.45 0.48 0.55 0.63 0.71 0.79 0.84 0.87 0.93 1.00 0.99 0.95
0.48 0.41 0.25 0.13 0.06 0.07 0.20 0.35 0.15 0.11 0.10 0.10 0.12 0.18 0.16 0.14 0.15 0.12 0.13 0.17 0.17 0.16 0.16 0.15 0.17 0.20 0.23 0.25 0.28 0.35 0.38 0.42 0.43 0.45 0.51 0.58 0.67 0.77 0.82 0.84 0.84 0.83 0.82 0.77
0.38 0.35 0.16 0.08 0.04 0.07 0.28 0.41 0.16 0.12 0.10 0.12 0.14 0.15 0.14 0.11 0.10 0.11 0.13 0.17 0.22 0.24 0.25 0.25 0.27 0.28 0.30 0.31 0.34 0.37 0.39 0.43 0.45 0.47 0.51 0.57 0.62 0.65 0.68 0.68 0.65 0.63 0.60 0.57
0.21 0.27 0.17 0.10 0.11 0.18 0.25 0.17 0.13 0.12 0.13 0.16 0.18 0.16 0.13 0.12 0.10 0.11 0.14 0.17 0.22 0.27 0.29 0.31 0.32 0.34 0.35 0.37 0.39 0.39 0.40 0.44 0.47 0.47 0.47 0.46 0.47 0.50 0.50 0.50 0.50 0.48 0.48 0.48
0.15 0.17 0.14 0.12 0.16 0.18 0.18 0.14 0.12 0.12 0.12 0.15 0.21 0.21 0.18 0.16 0.13 0.11 0.12 0.16 0.19 0.23 0.24 0.25 0.30 0.35 0.38 0.39 0.38 0.36 0.38 0.39 0.39 0.38 0.37 0.37 0.37 0.37 0.39 0.42 0.44 0.46 0.46 0.46
0.13 0.12 0.11 0.12 0.14 0.13 0.13 0.12 0.11 0.11 0.12 0.14 0.16 0.19 0.19 0.18 0.16 0.16 0.15 0.13 0.14 0.16 0.18 0.19 0.21 0.25 0.29 0.31 0.30 0.28 0.30 0.29 0.28 0.27 0.27 0.27 0.28 0.29 0.32 0.35 0.37 0.39 0.41 0.41
0.12 0.09 0.08 0.08 0.07 0.07 0.07 0.07 0.08 0.10 0.11 0.12 0.12 0.15 0.18 0.17 0.15 0.16 0.15 0.14 0.12 0.11 0.12 0.13 0.14 0.16 0.20 0.22 0.22 0.21 0.22 0.20 0.20 0.20 0.24 0.27 0.27 0.28 0.31 0.33 0.37 0.39 0.38 0.39
0.14 0.08 0.09 0.08 0.05 0.04 0.04 0.04 0.05 0.07 0.09 0.10 0.10 0.14 0.15 0.14 0.13 0.13 0.15 0.15 0.12 0.11 0.12 0.12 0.12 0.13 0.14 0.17 0.20 0.21 0.19 0.19 0.19 0.17 0.20 0.26 0.30 0.30 0.34 0.37 0.41 0.45 0.45 0.42
0.11 0.07 0.06 0.05 0.04 0.04 0.03 0.03 0.03 0.04 0.06 0.07 0.07 0.09 0.11 0.12 0.13 0.13 0.12 0.12 0.11 0.11 0.11 0.11 0.12 0.13 0.13 0.15 0.17 0.18 0.19 0.20 0.21 0.20 0.22 0.25 0.27 0.28 0.29 0.31 0.35 0.41 0.43 0.44
0.05 0.04 0.04 0.03 0.04 0.04 0.03 0.03 0.03 0.03 0.04 0.05 0.07 0.08 0.08 0.10 0.12 0.13 0.14 0.14 0.13 0.11 0.11 0.11 0.12 0.11 0.11 0.11 0.13 0.16 0.19 0.21 0.20 0.21 0.24 0.26 0.27 0.29 0.28 0.26 0.27 0.29 0.34 0.39
0.04 0.04 0.04 0.03 0.03 0.03 0.04 0.03 0.03 0.04 0.04 0.05 0.06 0.07 0.08 0.10 0.13 0.15 0.15 0.14 0.14 0.13 0.11 0.10 0.11 0.11 0.10 0.10 0.11 0.13 0.17 0.18 0.18 0.20 0.22 0.25 0.26 0.29 0.28 0.26 0.25 0.24 0.25 0.31
0.05 0.04 0.05 0.04 0.04 0.04 0.04 0.04 0.04 0.05 0.06 0.06 0.08 0.09 0.10 0.12 0.14 0.16 0.15 0.15 0.14 0.13 0.12 0.10 0.10 0.09 0.10 0.11 0.12 0.13 0.15 0.18 0.19 0.19 0.20 0.22 0.24 0.26 0.27 0.25 0.24 0.24 0.23 0.25
0.07 0.06 0.06 0.06 0.05 0.05 0.05 0.05 0.05 0.06 0.07 0.07 0.09 0.11 0.11 0.12 0.15 0.16 0.16 0.15 0.15 0.14 0.13 0.12 0.11 0.10 0.09 0.11 0.13 0.14 0.16 0.17 0.20 0.19 0.18 0.20 0.22 0.24 0.26 0.28 0.27 0.25 0.24 0.28
0.08 0.09 0.09 0.09 0.09 0.08 0.07 0.07 0.07 0.07 0.07 0.08 0.08 0.09 0.10 0.12 0.14 0.16 0.16 0.15 0.16 0.16 0.15 0.14 0.13 0.12 0.11 0.12 0.13 0.15 0.16 0.17 0.17 0.18 0.18 0.20 0.23 0.23 0.23 0.25 0.26 0.26 0.24 0.28
0.08 0.11 0.12 0.11 0.10 0.10 0.10 0.10 0.10 0.10 0.10 0.10 0.10 0.11 0.12 0.13 0.13 0.15 0.17 0.17 0.16 0.16 0.16 0.15 0.17 0.14 0.12 0.14 0.17 0.16 0.16 0.17 0.18 0.19 0.19 0.23 0.24 0.22 0.21 0.22 0.24 0.25 0.25 0.26
0.12 0.13 0.15 0.15 0.14 0.13 0.13 0.12 0.11 0.11 0.11 0.11 0.12 0.13 0.14 0.15 0.15 0.16 0.17 0.17 0.17 0.18 0.18 0.18 0.18 0.14 0.14 0.15 0.20 0.16 0.16 0.18 0.20 0.21 0.22 0.23 0.23 0.22 0.22 0.23 0.24 0.24 0.25 0.25
0.14 0.15 0.16 0.17 0.17 0.17 0.17 0.16 0.14 0.13 0.12 0.11 0.12 0.13 0.14 0.15 0.15 0.15 0.15 0.15 0.15 0.15 0.15 0.18 0.17 0.15 0.16 0.20 0.24 0.20 0.18 0.19 0.21 0.22 0.23 0.23 0.24 0.25 0.25 0.25 0.26 0.26 0.26 0.26
0.16 0.16 0.16 0.17 0.17 0.17 0.16 0.15 0.14 0.14 0.14 0.14 0.13 0.13 0.12 0.13 0.14 0.14 0.13 0.13 0.14 0.16 0.15 0.13 0.14 0.18 0.23 0.26 0.23 0.20 0.20 0.22 0.23 0.24 0.24 0.23 0.24 0.25 0.26 0.27 0.27 0.27 0.27 0.28
0.15 0.14 0.14 0.15 0.15 0.15 0.15 0.15 0.14 0.15 0.15 0.14 0.14 0.14 0.13 0.13 0.13 0.13 0.14 0.12 0.12 0.13 0.13 0.13 0.16 0.22 0.25 0.24 0.20 0.20 0.22 0.24 0.24 0.24 0.24 0.24 0.25 0.26 0.27 0.28 0.27 0.27 0.27 0.27
0.12 0.12 0.12 0.12 0.13 0.13 0.14 0.15 0.15 0.14 0.14 0.13 0.13 0.12 0.12 0.13 0.13 0.13 0.12 0.13 0.13 0.14 0.13 0.14 0.18 0.20 0.21 0.18 0.17 0.19 0.21 0.22 0.23 0.23 0.24 0.25 0.25 0.26 0.26 0.26 0.25 0.23 0.24 0.24
0.09 0.09 0.09 0.10 0.10 0.10 0.11 0.12 0.12 0.13 0.13 0.12 0.11 0.11 0.11 0.12 0.13 0.12 0.12 0.11 0.12 0.13 0.12 0.13 0.15 0.17 0.17 0.15 0.16 0.18 0.19 0.20 0.22 0.24 0.24 0.24 0.23 0.24 0.24 0.23 0.23 0.22 0.21 0.20
0.07 0.07 0.07 0.08 0.09 0.09 0.10 0.12 0.14 0.13 0.11 0.12 0.11 0.10 0.09 0.09 0.10 0.10 0.11 0.12 0.13 0.13 0.12 0.11 0.13 0.15 0.15 0.15 0.16 0.17 0.18 0.18 0.19 0.19 0.19 0.20 0.21 0.22 0.21 0.21 0.20 0.20 0.19 0.18
0.05 0.05 0.05 0.06 0.07 0.08 0.08 0.10 0.12 0.14 0.13 0.12 0.11 0.10 0.10 0.10 0.10 0.11 0.12 0.12 0.12 0.13 0.12 0.12 0.13 0.15 0.15 0.15 0.16 0.16 0.16 0.16 0.16 0.16 0.17 0.18 0.19 0.19 0.19 0.19 0.19 0.18 0.18 0.17